Location: Huntsville
(41.2590°N, 111.7678°W)
Time: 03:27:28
(UTC+00:00)

Courier 1B Rocket - Visible Passes

Search period start: 06 October 2022 00:00
Search period end: 16 October 2022 00:00
Orbit: 920 x 1202 km, 28.2° (Epoch: 05 October)

Date Brightness Start Highest point End Pass type
(mag) Time Alt. Az. Time Alt. Az. Time Alt. Az.
06 Oct 6.4 02:18:24 10° SW 02:23:47 25° S 02:27:04 17° SE visible
06 Oct 7.0 04:11:24 10° WSW 04:13:26 17° SW 04:13:26 17° SW visible
07 Oct 6.6 01:17:34 10° SW 01:22:57 24° S 01:28:04 10° ESE visible
07 Oct 6.2 03:10:13 10° WSW 03:15:34 25° S 03:16:07 25° S visible
08 Oct 6.4 02:09:06 10° SW 02:14:44 27° S 02:18:49 15° SE visible
08 Oct 6.9 04:02:37 10° WSW 04:05:11 17° SW 04:05:11 17° SW visible
09 Oct 6.4 03:01:13 10° WSW 03:06:30 24° S 03:07:53 22° S visible
10 Oct 6.5 01:59:56 10° WSW 02:05:39 26° S 02:10:36 12° SE visible
10 Oct 7.0 03:54:06 10° WSW 03:56:58 16° SSW 03:56:58 16° SSW visible
11 Oct 6.7 02:52:23 10° WSW 02:57:22 21° SSW 02:59:43 18° S visible
12 Oct 6.7 01:50:54 10° WSW 01:56:32 25° S 02:01:53 10° SE visible
12 Oct 7.2 03:46:05 10° SW 03:48:53 13° SSW 03:48:53 13° SSW visible
13 Oct 7.0 02:43:46 10° WSW 02:48:12 18° SSW 02:51:43 12° SSE visible
14 Oct 7.0 01:42:01 10° WSW 01:47:23 22° SSW 01:52:29 10° SSE visible
15 Oct 7.3 02:35:38 10° SW 02:38:58 14° SSW 02:42:11 10° S visible
